#timestamp,LO_Frequency,Hit,StdDev 
1549288815.2,286047001.3,N
1549288835.0,286047002.1,N
1549288835.9,286047002.1,N
1549288855.8,286047002.5,N
1549288875.6,286047003.9,Y
1549288895.4,286047002.8,P
1549288915.3,286047002.5,P
1549288935.1,286047001.3,N
1549288955.9,286047004.3,Y
1549288975.7,286047001.0,P
1549288995.5,286046999.3,N
1549289015.4,286047001.2,N
1549289035.2,286046998.1,N
1549289055.1,286046998.2,N
1549289056.0,286046998.2,N
1549289075.8,286046998.6,N
1549289095.6,286046998.3,N
1549289115.5,286047001.2,N
1549289135.3,286046999.3,N
1549289155.1,286046999.6,N
1549289175.9,286046998.9,N
1549289195.7,286046999.1,N
1549289215.6,286046999.2,N
1549289235.4,286046996.9,N
1549289255.2,286046999.0,N
1549289275.1,286046998.4,N
1549289276.0,286046998.4,N
1549289295.8,286046998.2,N
1549289315.7,286047000.6,N
1549289335.5,286047001.2,N
1549289355.3,286046998.3,N
1549289375.2,286047001.1,N
1549289395.9,286046999.9,N
1549289415.7,286047000.4,N
1549289435.6,286047000.4,N
1549289455.4,286046999.9,N
1549289475.3,286046999.9,N
1549289495.1,286047000.4,N
1549289496.0,286047000.4,N
1549289515.8,286047000.0,N
1549289535.7,286047000.2,N
1549289555.5,286047002.8,N
1549289575.3,286047002.7,N
1549289595.2,286047000.0,N
1549289615.0,286047001.1,N
1549289615.9,286047001.1,N
1549289635.8,286046999.3,N
1549289655.6,286046999.0,N
1549289675.4,286046998.4,N
1549289695.3,286046998.1,N
1549289715.9,286047001.2,N
1549289735.7,286046998.1,N
1549289755.6,286046998.9,N
1549289775.4,286046998.7,N
1549289795.2,286046998.7,N
1549289815.1,286047000.7,N
1549289816.0,286047000.7,N
1549289835.8,286046998.2,N
1549289855.6,286047000.8,N
1549289875.5,286046998.3,N
1549289895.3,286046998.9,N
1549289915.2,286046996.7,N
1549289935.9,286046995.4,Y
1549289955.7,286046996.5,P
1549289975.6,286046999.5,N
1549289995.4,286046997.7,N
1549290015.3,286046995.3,Y
1549290035.1,286046997.2,P
1549290036.0,286046997.2,P
1549290055.8,286046996.8,P
1549290075.7,286046998.2,Y
1549290095.5,286047004.0,P
1549290115.3,286047002.1,N
1549290165.2,286047002.2,E
1549290175.1,286047002.8,N
1549290195.9,286047000.0,P
1549290215.7,286047002.4,N
1549290235.6,286047000.3,N
1549290255.4,286047000.0,N
1549290275.2,286046999.9,N
1549290295.3,286047002.8,N
1549290315.1,286047000.0,N
1549290335.9,286047000.0,N
1549290355.7,286047000.4,N
1549290375.5,286047000.6,N
1549290395.4,286047000.8,N
1549290415.2,286046999.0,N
1549290435.1,286046999.5,N
1549290436.0,286046999.5,N
1549290455.8,286046996.7,N
1549290475.6,286046999.6,N
1549290495.5,286047000.9,N
1549290515.3,286047002.5,N
1549290535.1,286046999.9,N
1549290555.9,286047002.2,N
1549290575.7,286047002.6,N
1549290595.6,286046999.8,N
1549290615.4,286047002.1,N
1549290635.2,286047001.9,N
1549290655.1,286047003.6,N
1549290656.0,286047003.6,N
1549290675.8,286047003.8,N
1549290695.7,286047004.0,N
1549290715.6,286047002.8,N
1549290735.5,286047000.2,N
1549290755.3,286047002.4,N
1549290775.1,286047001.9,N
1549290795.9,286047003.0,N
1549290815.7,286047003.2,N
1549290835.6,286047003.8,N
1549290855.4,286047004.1,N
1549290875.2,286047003.5,N
1549290895.1,286047005.5,N
1549290896.0,286047005.5,N
1549290915.8,286047004.2,N
1549290935.6,286047004.3,N
1549290955.5,286047002.4,N
1549290975.3,286047000.6,N
1549290995.2,286046999.8,N
1549291015.9,286046999.8,N
1549291035.7,286047002.3,N
1549291055.6,286047001.5,N
1549291075.4,286047001.6,N
1549291095.3,286047003.8,N
1549291115.1,286047004.4,N
1549291116.0,286047004.4,N
1549291135.8,286047003.7,N
1549291155.7,286047003.7,N
1549291175.5,286047002.7,N
1549291195.3,286047001.9,N
1549291215.2,286047002.4,N
1549291235.0,286047002.5,N
1549291235.9,286047002.5,N
1549291255.8,286047001.4,N
1549291275.6,286047001.3,N
1549291295.4,286047002.7,N
1549291315.3,286047001.3,N
1549291335.1,286047004.4,N
1549291355.8,286047001.3,N
1549291375.7,286047003.7,N
1549291395.5,286047002.9,N
1549291415.4,286047003.4,N
1549291435.2,286047005.6,Y
1549291455.0,286047001.9,P
1549291455.9,286047001.9,P
1549291475.8,286047002.1,P
1549291495.6,286047004.0,Y
1549291515.5,286047000.3,P
1549291535.3,286047001.0,N
1549291555.1,286046998.3,N
1549291575.9,286046996.6,N
1549291595.7,286046999.4,N
1549291615.6,286047001.1,N
1549291635.4,286046999.4,N
1549291655.2,286046997.0,N
1549291675.1,286046997.8,N
1549291676.0,286046997.8,N
1549291695.8,286046995.1,N
1549291715.7,286046995.7,N
1549291735.5,286046997.6,N
1549291755.3,286046995.3,N
1549291775.2,286046996.7,N
1549291795.0,286046999.1,N
1549291795.9,286046999.1,N
1549291815.7,286046999.2,N
1549291835.6,286046996.9,N
1549291855.4,286046997.0,N
1549291875.3,286046996.6,N
1549291895.1,286046996.5,N
1549291915.8,286046997.3,N
1549291935.7,286046998.4,N
1549291955.5,286046999.2,N
1549291975.4,286046998.9,N
1549291995.2,286046999.3,N
1549292015.0,286046996.5,N
1549292015.9,286046996.5,N
1549292035.8,286046998.3,N
1549292055.6,286046998.1,N
1549292075.5,286047001.1,N
1549292095.3,286047001.1,N
1549292115.1,286047001.1,N
1549292135.9,286047001.2,N
1549292155.7,286046998.5,N
1549292175.5,286046997.0,N
1549292195.4,286046998.7,N
1549292215.2,286046998.4,N
1549292235.0,286046996.6,N
1549292236.0,286046996.6,N
1549292255.8,286046997.7,N
1549292275.6,286046996.8,N
1549292295.5,286046997.3,N
1549292315.3,286046999.3,N
1549292335.1,286046997.0,N
1549292355.9,286046997.3,N
1549292375.7,286046996.7,N
1549292395.6,286046997.6,N
